Lid_Strength_Index
0 1 0 1 6 6 9 9 6 8 8 5 5 6 6 5 7 9 1 -0 -1 -1 -1 -1 -2 -2 -2 -2 -2 -2 -2 -2 -2 -2 -2 -2 -2 -2 -2 -2 -2 -2 -2 -2 -2 -2 -2 -2 -2
2 2 1 3 8 10 9 7 8 7 6 4 5 5 5 6 4 3 2 -0 -1 -1 -1 -1 -1 -2 -2 -2 -2 -2 -2 -2 -2 -2 -2 -2 -2 -2 -2 -2 -2 -2 -2 -2 -2 -2 -2 -2 -2
3 3 3 5 7 9 9 7 6 6 5 5 5 4 5 6 3 2 0 -1 -1 -1 -1 -1 -1 -2 -2 -2 -2 -2 -2 -2 -2 -2 -2 -2 -2 -2 -2 -2 -2 -2 -2 -2 -2 -2 -2 -2 -2
3 3 4 7 9 8 8 6 6 6 6 6 4 6 4 2 3 1 -0 -1 -0 -1 -1 -1 -1 -2 -2 -2 -2 -2 -2 -2 -1 -2 -2 -2 -2 -2 -2 -2 -3 -2 -2 -2 -2 -2 -2 -2 -2
2 4 7 8 9 8 8 6 5 6 6 5 4 6 5 3 1 0 -0 -0 -0 -1 -1 -1 -1 -1 -2 -2 -2 -2 -2 -2 -1 -2 -2 -2 -2 -2 -2 -2 -2 -2 -2 -2 -2 -2 -2 -2 -3
5 4 9 10 9 8 7 6 5 6 6 5 5 5 5 2 1 1 -0 -0 -1 -0 -1 -1 0 -1 -1 -2 -2 -2 -2 -2 -1 -2 -2 -2 -2 -2 -2 -2 -2 -2 -2 -2 -2 -2 -2 -2 -2
6 6 8 8 9 8 7 6 6 6 6 6 4 6 4 3 1 0 -0 -1 -1 -1 -1 -1 -1 -1 -0 -1 -1 -2 -2 -2 -2 -2 -2 -2 -2 -2 -2 -3 -2 -2 -2 -2 -2 -2 -3 -2 -2
5 6 9 9 9 9 7 6 6 6 7 5 3 6 5 3 1 0 -0 -0 -0 -1 -1 -1 -1 -1 -2 -2 0 -1 -1 -1 -1 -1 -1 -1 -1 -2 -2 -2 -2 -2 -2 -2 -2 -2 -2 -2 -2
6 7 9 9 9 8 7 7 7 6 6 5 3 5 3 1 1 1 1 1 1 0 -0 -1 -1 -1 -1 -1 -0 0 -0 -0 0 0 1 -0 -2 -2 -2 -1 -2 -2 -3 -2 -2 -2 -2 -2 -2
6 7 8 7 7 7 7 6 6 6 6 6 5 4 2 2 2 3 3 3 2 1 1 -0 -1 -1 -1 -1 -2 -2 -2 -2 -2 -2 -2 -2 -2 -2 -1 -0 -1 -1 -2 -2 -2 -1 -0 -1 -2
7 8 7 8 8 7 7 7 6 6 7 5 5 4 3 3 3 3 2 2 2 1 1 1 0 -1 -1 -1 -1 -1 -1 -2 -2 -2 -2 -2 -2 -2 -1 -2 -2 -2 -0 -2 -2 -1 -1 -1 -2
9 8 8 8 8 8 7 7 7 6 6 6 5 3 3 4 3 3 3 2 2 1 1 0 -0 -0 -0 -1 -1 -1 -1 -1 -1 -2 -2 -2 -1 -1 -1 -1 -2 -2 -1 -2 -1 -1 -1 -1 -1
8 8 8 8 8 8 8 8 7 7 5 6 6 4 3 3 3 2 2 1 1 1 1 0 -0 -0 -0 -1 -1 -1 -1 -1 -1 -1 -1 -1 -0 -1 -1 -1 -1 -1 -1 -1 -1 -1 -1 -1 -1
8 8 8 8 8 8 8 9 8 7 7 7 7 5 3 3 3 2 2 2 2 1 1 0 0 0 0 0 -0 -1 -1 -1 -1 -1 -0 -0 0 0 -0 0 -0 -0 -1 -1 -0 -0 -0 -0 -1
9 9 9 9 9 9 8 9 9 7 8 8 7 6 5 3 3 3 2 2 1 1 1 1 1 0 0 0 0 -1 -0 -1 -1 -0 -0 0 0 1 1 1 1 0 -0 -0 -0 0 0 1 0
9 9 11 10 9 9 9 10 9 8 8 8 7 7 6 5 2 2 2 1 1 1 1 0 -0 0 0 -0 -0 -0 0 -0 -1 -1 -1 0 0 1 2 1 1 1 0 0 1 1 1 1 2
10 12 12 12 9 9 10 10 9 8 8 8 8 7 7 7 6 4 1 1 1 1 1 1 0 0 0 -0 -0 0 -0 0 -0 -1 -1 -0 1 1 2 3 2 2 2 1 2 2 3 3 4
12 13 13 12 11 10 10 10 8 8 8 8 7 7 7 6 6 5 5 2 1 1 0 0 0 0 -0 -0 -0 0 0 0 -0 0 1 -1 0 1 2 1 2 3 3 4 4 4 3 3 3
10 11 12 12 11 10 10 10 9 8 8 8 7 6 6 6 5 5 5 5 4 1 1 1 1 0 0 1 2 1 1 1 0 -0 1 1 -0 0 1 1 1 2 3 4 4 5 6 6 4
11 12 12 12 11 11 11 11 9 8 8 7 7 7 6 6 6 6 6 6 5 5 2 1 1 0 0 1 1 1 1 0 -0 0 1 1 1 0 1 2 3 3 4 3 4 6 7 7 7
12 12 13 12 12 12 12 11 10 9 10 9 9 8 8 8 8 7 7 7 6 6 5 3 1 0 0 0 0 0 0 0 1 1 1 1 1 1 1 2 3 4 4 5 4 5 6 7 7
13 11 11 12 12 14 12 14 11 10 10 10 9 9 8 8 8 9 7 6 5 5 6 6 3 1 0 -0 1 1 2 2 1 1 0 0 0 1 2 3 3 4 5 5 4 5 6 6 9
12 11 11 12 12 12 13 14 12 12 11 10 9 9 8 8 8 7 7 7 6 5 5 6 6 3 1 0 0 1 1 1 0 0 1 0 0 0 1 3 3 2 3 4 4 5 6 6 6
10 11 11 12 12 15 13 13 13 12 11 10 9 9 8 8 8 7 7 7 6 5 4 3 6 6 2 0 0 1 1 1 2 1 1 1 0 1 1 2 1 1 2 3 4 5 5 6 6
11 11 15 16 16 16 15 15 12 11 11 10 10 9 7 7 7 7 7 6 6 6 5 5 3 3 3 2 0 1 1 1 1 1 1 1 1 2 1 1 1 1 2 2 3 4 5 6 6
11 11 14 18 18 16 16 16 13 11 10 10 10 9 8 7 7 7 7 7 7 6 6 5 5 4 2 1 1 1 1 1 1 1 1 1 1 1 1 1 1 2 2 2 3 4 5 5 6
12 13 11 16 19 15 14 13 11 11 10 10 9 8 8 8 8 8 7 7 7 6 6 6 5 5 5 3 1 3 3 2 2 2 3 3 3 4 4 3 3 3 3 3 3 3 4 4 4
11 10 14 13 18 17 16 16 13 12 10 10 9 9 8 8 8 8 8 8 7 7 7 6 6 6 5 5 5 4 4 4 3 3 2 2 2 2 2 2 2 3 3 4 3 3 4 4 4
14 13 13 12 13 16 17 15 11 11 10 10 9 9 9 9 8 8 8 8 8 8 7 7 7 7 6 6 5 5 5 5 5 5 4 4 4 4 4 3 3 3 3 2 2 3 3 4 4
13 13 12 14 16 15 16 14 11 12 10 9 9 9 9 8 8 8 8 8 9 9 9 9 9 9 8 7 7 7 7 7 6 6 6 5 5 5 5 5 4 4 4 4 4 4 4 4 5